Wind_Speed
14 14 14 14 15 15 16 17 16 15 15 16 16 17 17 16 15 14 13 13 14 14 15 15 15 15 15 16 16 17 17 19 21 23 25 27 29 30 32 33 34 34 35 35 36 36 36 35 34 34 34 35 37 39 41 43 44 44 45 47 49 51 53 55 55 54 53 52 51 50 50 51 51 51 51 52 53 53 54 54 54 53 52 51 51
12 12 13 14 15 15 16 16 17 17 17 17 17 18 17 16 15 14 14 15 15 16 16 16 16 16 17 17 17 18 19 20 23 25 27 28 30 32 33 34 34 34 35 36 36 36 35 34 34 34 35 36 38 40 42 43 44 45 47 49 51 53 55 55 53 51 50 49 49 48 49 49 50 50 50 51 51 51 52 52 52 52 50 49 48
12 12 13 14 14 15 16 17 17 18 18 18 18 18 17 16 16 15 15 16 17 17 17 17 17 18 18 18 18 19 20 22 24 26 28 30 32 33 33 34 34 35 35 36 36 35 35 34 34 34 36 37 39 41 42 43 44 46 49 51 53 54 54 52 51 49 48 47 47 47 47 48 48 48 48 49 50 50 51 51 51 50 49 48 47
12 12 13 13 14 15 16 17 18 19 19 20 20 19 18 17 17 17 17 18 18 19 18 18 18 19 19 19 20 21 22 24 26 28 29 31 32 33 34 34 34 35 36 36 36 35 34 34 34 35 36 38 40 41 42 43 46 48 50 52 53 52 50 49 47 46 45 45 46 46 46 46 47 47 48 49 50 51 51 50 49 47 46 45 45
13 12 13 13 14 15 16 18 19 20 21 21 21 20 19 19 18 18 19 19 19 19 19 19 20 20 21 21 22 22 24 25 27 28 30 32 33 34 34 35 35 36 36 36 36 35 34 34 34 36 37 39 40 41 43 44 47 49 51 51 50 48 46 45 44 43 43 43 44 44 44 44 45 47 48 49 50 48 46 45 44 42 41 41 41
14 13 13 14 14 15 16 18 19 20 22 22 22 21 20 20 20 20 20 20 21 21 21 21 22 22 22 23 23 24 25 27 28 30 32 33 34 34 35 35 36 36 36 36 35 34 33 33 35 36 38 39 40 41 43 45 48 49 50 49 47 45 43 42 41 41 42 42 43 43 43 44 45 47 48 48 47 43 38 36 37 38 38 38 39
15 14 14 14 15 15 16 17 19 20 22 22 22 22 21 21 21 22 22 21 22 23 23 23 23 24 24 24 25 26 27 28 29 31 33 34 34 35 35 35 36 36 36 36 34 33 33 33 35 37 38 39 40 42 44 46 48 49 48 46 44 41 40 39 39 40 41 41 42 42 43 44 44 46 47 46 43 39 33 30 31 33 34 36 37
16 16 15 15 15 16 17 18 19 20 22 22 23 23 22 22 23 23 23 23 23 24 25 25 25 25 25 26 26 27 28 29 30 32 34 34 34 35 35 36 36 36 36 34 33 32 32 33 35 37 38 39 41 42 44 46 47 47 45 43 40 38 37 37 38 39 40 40 41 42 43 43 43 44 45 43 39 34 31 30 30 31 32 34 36
17 16 16 15 15 16 16 18 19 21 22 23 24 24 24 24 24 25 24 24 25 25 26 26 27 27 27 27 27 28 28 30 31 33 34 35 35 35 35 36 36 36 35 33 32 31 32 34 35 37 38 39 41 42 44 45 46 45 42 39 37 36 36 37 38 39 39 40 41 42 43 43 42 43 44 43 40 36 33 34 35 35 35 36 37
18 17 17 17 16 16 16 17 19 20 22 23 24 25 25 26 26 26 26 26 26 27 27 28 28 27 27 27 28 28 29 30 32 33 34 35 35 35 35 35 35 35 33 32 31 31 32 34 36 37 38 40 41 43 44 45 45 43 41 37 35 35 36 37 38 38 39 40 41 42 43 43 43 43 44 45 43 39 38 37 38 38 38 38 39
19 19 18 18 18 17 17 18 19 21 22 23 24 25 26 27 27 28 28 28 29 29 29 29 29 28 27 28 28 28 29 30 32 34 34 34 34 34 34 35 35 34 32 31 31 31 33 34 36 37 39 40 41 43 44 44 44 42 39 36 34 35 36 37 37 38 39 40 41 42 43 43 43 43 45 46 45 43 40 39 39 39 39 39 40
19 19 19 19 19 19 19 20 21 22 23 24 25 26 26 26 28 29 30 30 32 33 32 31 30 29 28 28 28 28 29 31 33 34 34 33 33 33 34 34 34 33 32 31 31 31 33 34 36 37 39 40 41 42 43 43 41 39 36 34 34 35 36 36 37 37 38 40 41 42 43 44 44 45 46 47 47 46 43 40 39 39 40 41 42
20 20 20 20 20 20 21 22 23 24 25 26 26 27 27 27 29 29 30 32 35 36 36 35 34 31 28 27 27 27 29 31 32 33 32 32 32 33 34 34 33 32 31 30 30 31 33 34 36 37 39 40 41 41 41 40 38 36 33 33 34 35 35 36 36 37 37 38 40 42 43 45 46 47 48 49 49 48 46 42 39 38 39 41 42
21 21 21 21 21 22 22 24 25 26 27 28 29 29 29 30 30 31 32 35 37 39 40 39 35 30 26 25 26 27 29 31 31 31 31 31 32 33 34 33 32 31 30 30 30 31 32 34 36 37 38 39 40 40 39 38 35 33 31 32 33 33 34 34 35 35 36 37 39 42 44 47 48 49 51 52 52 51 49 46 41 39 39 39 40
22 22 22 22 23 23 24 25 26 26 27 29 30 31 32 32 33 34 35 35 38 41 40 34 27 23 22 23 25 26 28 29 30 30 30 31 32 33 33 32 31 30 29 29 29 30 32 34 36 37 38 38 38 37 37 35 32 30 30 31 31 31 32 33 33 34 35 37 39 42 45 47 50 51 52 54 54 53 52 50 47 43 40 37 37
23 22 22 23 23 24 25 26 26 27 28 29 31 32 33 34 34 35 35 33 34 33 30 25 20 20 22 23 24 26 27 29 29 30 30 31 32 32 31 30 30 29 29 28 29 30 32 34 35 36 37 36 36 35 34 32 30 29 29 30 30 31 31 31 32 33 35 37 40 43 45 48 50 51 53 54 55 54 54 53 51 47 42 37 35
24 24 23 24 24 25 25 26 27 27 29 30 32 32 32 31 30 30 31 31 28 23 21 21 21 21 21 22 24 26 27 28 29 30 30 31 31 31 30 29 29 29 28 28 28 29 31 34 35 35 35 35 34 33 32 30 28 28 28 29 29 30 30 30 31 32 34 37 40 43 45 48 49 50 51 53 54 55 55 54 54 51 46 41 37
25 25 25 26 26 27 27 29 29 29 30 31 31 30 28 27 27 27 25 24 22 20 20 21 21 20 21 22 24 26 27 28 28 29 29 30 30 29 29 29 29 28 27 27 28 29 31 33 34 34 34 33 32 31 30 28 27 27 27 28 28 28 28 28 30 31 34 36 39 42 44 46 48 49 50 51 53 54 55 55 55 55 52 48 42
27 27 27 28 28 29 30 31 31 30 31 31 29 28 27 27 28 27 25 23 22 21 20 19 19 20 21 23 25 26 27 27 28 28 28 29 29 29 29 29 28 27 27 27 28 29 31 33 33 33 33 32 30 29 28 27 26 26 26 27 26 26 26 27 28 30 32 34 37 41 43 45 47 47 48 49 51 53 55 56 56 56 56 54 50
28 29 29 29 29 30 31 32 32 31 30 29 28 28 28 28 28 27 26 24 21 18 18 19 19 20 22 24 26 26 26 27 28 27 28 28 28 28 28 28 27 27 27 27 28 29 31 32 32 32 31 30 28 27 26 25 25 25 25 25 26 26 25 26 27 29 31 33 36 39 42 44 45 46 47 47 48 51 53 55 57 57 57 57 56
31 31 32 32 31 32 33 33 32 31 30 29 28 28 27 27 27 26 23 20 17 18 20 21 21 21 23 25 26 26 26 27 27 27 28 28 28 28 28 27 27 27 27 28 28 29 31 32 31 31 30 28 27 26 25 24 24 23 24 25 25 25 25 26 28 30 32 34 36 38 41 43 44 45 45 46 47 48 50 53 56 57 58 58 58
33 34 35 35 35 34 34 34 32 31 31 30 29 29 28 27 26 24 21 19 21 23 23 22 22 22 24 25 26 26 26 26 27 27 28 28 28 28 27 27 27 27 28 28 28 29 30 31 30 30 29 27 26 25 25 24 23 23 23 24 25 25 26 27 28 30 32 34 35 37 40 42 43 43 44 45 46 46 48 50 53 55 57 58 59
36 37 38 38 37 36 36 35 33 32 32 32 31 30 29 28 26 25 24 25 26 26 23 22 22 23 24 25 26 26 26 27 27 28 28 28 28 28 27 27 27 27 28 28 28 29 30 30 29 29 28 27 26 25 24 24 23 23 23 24 24 25 26 27 28 30 32 33 35 37 38 40 41 43 43 44 45 46 47 48 49 51 54 56 58
39 38 38 38 38 37 37 36 34 33 33 33 32 31 29 27 26 26 27 27 27 25 23 22 23 23 24 25 26 26 27 27 27 28 28 28 28 27 27 27 27 28 28 28 28 28 29 28 28 28 27 26 26 25 25 24 23 23 23 23 24 25 26 27 28 30 31 33 34 36 37 39 40 42 43 44 45 46 46 46 46 47 50 52 55
40 37 36 38 38 37 37 36 34 34 33 33 33 32 30 27 27 27 28 28 26 25 24 23 23 24 25 26 27 27 28 28 28 28 28 28 27 27 27 28 28 29 29 28 28 28 27 27 27 26 26 26 25 25 25 24 24 23 23 23 24 25 26 27 28 30 31 33 34 35 36 38 40 41 43 44 44 44 44 45 45 45 45 47 50
42 38 37 38 38 37 36 35 34 35 34 33 33 32 31 29 29 29 30 29 28 26 25 25 25 26 27 28 28 28 29 29 28 28 28 28 28 28 28 29 30 30 29 28 27 27 26 26 25 25 25 25 25 25 25 25 24 23 23 23 24 25 26 27 28 30 31 33 34 35 36 38 39 41 42 43 43 43 43 44 44 44 43 44 45
42 41 41 41 40 38 35 34 34 35 34 34 34 34 33 32 32 32 33 32 30 29 28 27 27 28 29 29 29 30 30 30 29 29 29 29 29 29 29 30 30 30 29 28 27 26 25 25 24 24 24 24 24 24 24 24 24 24 24 24 24 25 26 27 29 30 31 33 34 35 37 38 39 40 41 41 42 43 43 43 43 44 43 43 43
42 42 42 42 40 38 36 34 34 35 35 35 35 35 34 34 33 33 33 32 31 30 30 30 30 30 30 30 30 31 31 31 30 30 29 30 29 29 29 30 31 30 29 27 26 25 24 23 23 23 24 24 24 24 24 24 23 24 24 24 24 25 26 27 29 30 31 32 33 35 36 37 38 39 39 40 41 42 42 42 42 43 43 42 42
40 41 41 41 40 38 36 35 35 35 36 36 37 36 35 34 33 31 31 31 31 31 31 31 30 30 30 31 32 33 33 32 32 31 30 30 30 29 29 30 31 29 28 27 26 25 23 23 22 23 23 24 24 24 24 24 24 24 24 24 24 25 26 27 28 29 31 32 33 34 35 35 37 38 38 39 40 40 41 41 41 42 42 42 41
36 38 39 39 38 38 37 36 36 36 37 37 36 34 33 32 32 32 32 32 32 32 32 31 30 30 31 33 35 35 34 34 33 32 31 31 30 29 29 30 30 29 28 27 26 24 23 22 22 22 23 24 24 24 24 24 24 24 24 24 24 25 26 27 28 29 30 32 33 34 35 35 36 37 37 37 38 39 40 40 41 41 41 41 41
34 36 37 37 37 37 37 36 36 36 35 35 34 33 33 33 34 35 35 34 33 33 33 32 31 32 34 36 37 36 36 36 35 33 32 32 31 30 29 30 29 28 27 27 26 24 22 22 21 21 22 23 23 23 23 24 24 24 24 24 24 25 26 27 28 29 30 32 33 34 34 35 35 36 36 36 37 37 38 39 40 40 40 41 41
33 34 35 36 36 36 36 36 35 35 34 33 33 33 35 36 37 38 37 36 35 34 34 33 33 34 36 38 38 38 37 37 36 34 33 33 32 31 30 30 29 28 28 27 25 24 22 22 21 21 22 23 23 23 23 23 23 23 24 24 24 25 26 27 28 29 30 31 33 33 34 35 35 35 35 35 36 37 37 38 39 39 39 39 39
32 33 34 36 36 35 35 35 34 34 34 33 32 33 35 37 38 39 38 38 37 36 35 34 35 36 38 39 39 39 39 39 37 35 35 34 33 31 31 31 30 29 28 27 26 24 23 22 20 20 22 23 23 22 22 23 23 23 23 24 25 26 26 27 28 29 30 31 32 33 34 34 34 34 34 34 35 36 36 37 38 38 38 38 38
32 33 34 36 36 35 35 35 35 35 35 34 32 33 34 36 37 38 40 41 41 39 38 37 37 38 39 40 41 40 40 40 39 37 36 35 33 32 32 31 30 29 29 28 27 25 23 22 20 21 22 23 23 22 22 22 23 23 23 25 25 26 27 28 29 30 31 32 32 33 33 33 33 33 33 34 34 35 36 36 37 37 38 38 37
32 34 35 36 36 36 36 36 36 36 35 34 34 35 36 37 37 37 38 40 41 41 39 38 39 39 40 41 41 40 41 42 41 38 36 35 33 33 32 32 31 30 29 28 28 26 24 22 21 21 22 23 22 22 22 22 23 23 24 25 26 26 27 28 29 30 31 31 32 33 33 33 33 33 33 34 34 34 35 36 36 36 37 37 37
33 34 35 36 37 37 37 37 37 36 36 36 36 37 39 40 41 39 38 38 39 40 39 38 39 40 41 42 41 41 42 43 41 39 37 35 34 34 34 33 32 30 29 29 29 27 25 23 22 22 23 23 23 22 22 22 22 23 24 25 26 27 27 28 29 30 31 31 31 32 33 33 34 34 34 34 35 34 35 35 36 36 36 36 36
35 36 37 38 38 39 39 39 39 39 38 38 38 39 40 41 41 41 40 38 37 39 40 40 40 41 42 42 42 42 43 43 42 39 37 36 35 36 36 35 33 31 30 30 29 28 26 24 23 23 24 24 23 22 22 22 23 24 25 25 26 27 27 28 29 30 30 31 31 32 32 33 34 34 34 35 35 35 35 35 35 36 36 36 36
36 37 38 38 39 39 40 39 39 40 39 38 37 38 40 41 41 42 42 40 38 38 40 40 41 42 44 43 43 43 44 44 41 39 38 37 37 37 38 37 35 33 32 31 29 28 27 26 25 24 25 25 24 23 22 22 23 24 25 26 27 27 28 29 29 30 31 31 31 32 33 33 34 35 35 35 36 36 36 36 36 36 36 35 35
34 34 35 36 36 36 36 36 36 36 36 35 34 35 36 38 39 40 41 42 41 39 38 38 39 42 45 45 44 44 45 44 42 40 39 39 38 38 38 38 36 35 33 32 30 29 28 27 26 26 26 26 25 24 23 23 24 25 26 26 27 27 28 29 30 30 31 31 31 32 33 34 35 35 36 36 36 36 36 36 36 36 36 35 34
31 32 33 33 33 33 33 33 34 35 34 34 33 33 34 35 37 38 38 40 41 41 41 41 40 41 42 44 46 47 47 45 42 40 40 41 40 38 38 39 38 36 35 33 31 29 28 27 27 27 27 27 26 25 24 25 25 26 27 27 27 28 29 29 30 31 31 31 32 32 33 35 36 36 36 37 37 37 37 37 37 37 36 35 34
31 32 32 32 32 32 32 33 34 35 35 34 34 34 35 35 36 37 37 38 38 39 40 40 39 39 39 39 42 46 49 49 46 42 41 41 41 40 39 40 40 38 36 34 32 30 29 28 28 28 28 28 28 26 25 26 26 26 27 27 27 28 29 29 30 31 31 32 32 32 33 35 36 37 38 38 38 37 37 37 37 37 36 35 33
32 33 33 33 33 32 32 33 34 34 34 34 34 35 36 36 36 37 37 38 37 38 38 37 37 38 38 36 36 42 48 51 50 46 43 43 43 42 41 41 42 40 37 35 32 31 30 29 29 29 29 29 29 28 27 27 27 27 27 28 28 29 29 30 31 32 32 32 33 33 34 35 37 38 39 39 39 39 38 38 38 37 36 35 33
33 34 34 34 34 34 33 33 34 34 34 34 35 35 35 35 36 36 37 37 37 37 37 37 36 36 35 34 35 40 45 48 49 47 45 45 46 46 44 43 43 41 38 36 33 32 31 30 30 30 30 30 30 29 28 28 28 28 28 29 29 30 30 31 31 32 33 33 34 34 34 35 37 38 40 40 40 40 39 38 38 37 37 35 34
33 34 34 35 34 34 33 33 33 34 34 34 34 34 34 34 35 35 36 37 36 36 37 37 36 36 34 33 35 40 44 45 45 45 45 45 47 47 46 45 44 41 38 36 34 33 32 31 30 30 31 31 31 29 29 29 29 29 30 30 30 30 31 32 32 33 34 34 35 35 35 36 37 39 40 41 41 41 40 39 39 38 37 36 35
34 34 34 35 34 34 34 34 34 34 34 34 34 34 34 34 34 34 35 35 36 36 37 38 38 38 37 36 36 40 42 42 43 45 45 44 44 45 45 45 44 41 38 36 35 33 33 32 31 31 32 32 31 30 30 30 30 31 31 31 31 32 32 33 33 34 35 36 36 36 36 37 37 39 41 42 42 42 41 40 40 39 38 37 37
34 33 33 34 34 34 34 34 34 34 34 34 34 34 34 35 35 35 35 36 37 37 39 40 40 41 42 39 37 37 39 41 44 48 47 44 43 44 45 45 44 41 39 37 35 34 33 33 32 33 33 33 32 31 31 31 32 32 32 32 33 33 34 34 35 35 36 37 37 38 37 38 38 39 41 42 42 42 42 42 41 40 39 39 38
33 32 32 33 33 34 34 35 34 34 34 33 33 33 34 35 35 35 35 35 36 36 37 39 40 41 41 39 37 38 39 40 42 44 45 44 44 44 44 44 43 41 39 37 36 35 34 34 34 34 34 33 33 32 32 32 33 33 33 34 34 35 35 36 36 37 38 39 39 39 39 39 39 40 41 42 43 43 43 43 42 41 41 40 40
31 31 31 32 33 33 34 34 34 34 34 34 33 33 33 34 34 34 34 34 34 33 34 34 35 35 36 37 39 40 40 38 37 39 42 43 43 42 42 42 41 40 38 37 37 36 35 35 35 35 35 34 34 33 33 33 33 34 35 36 36 37 37 37 38 39 40 40 41 41 41 41 41 42 42 42 43 43 44 45 44 43 42 42 42
32 32 32 32 32 33 33 33 33 34 34 33 33 33 33 32 32 32 32 32 31 30 30 31 31 32 34 36 38 38 37 35 35 37 39 40 40 40 40 40 39 39 38 38 37 36 36 36 36 35 35 35 35 34 34 34 35 35 37 38 38 38 39 39 40 41 42 42 43 43 44 44 44 44 44 43 43 44 45 46 46 45 44 44 43
35 34 34 34 35 35 34 34 34 34 34 34 33 33 33 32 32 32 32 31 30 29 29 30 30 30 31 32 33 34 34 34 33 34 36 37 38 38 39 38 38 39 39 39 38 37 36 36 36 36 36 36 36 35 35 35 36 37 39 40 40 40 40 41 42 43 44 44 45 45 46 46 46 46 46 45 44 44 46 47 47 47 46 45 45
37 37 37 37 37 37 36 36 36 36 35 35 35 34 33 33 33 33 32 32 31 31 31 32 32 33 33 33 33 34 34 33 33 33 34 35 36 37 37 38 38 39 39 39 38 37 37 37 37 37 37 37 37 36 37 37 38 40 41 41 41 42 42 43 44 45 45 46 47 47 47 48 48 48 48 47 46 46 47 48 48 47 47 47 46
Wind_Direction
227 224 223 223 225 230 236 240 240 236 230 227 226 226 226 225 226 230 236 242 249 254 256 257 260 264 268 273 281 290 297 304 310 314 316 318 320 322 322 323 323 322 322 322 321 321 320 319 318 318 318 320 321 322 323 323 323 324 324 324 325 325 325 325 324 323 322 322 321 321 320 318 317 315 314 311 310 308 307 305 303 301 299 297 294
233 231 231 233 234 236 239 237 233 229 226 226 226 226 227 228 231 236 241 247 251 253 255 257 261 265 270 277 285 293 301 307 311 314 316 320 322 322 322 323 323 322 322 322 322 321 320 318 318 319 320 322 323 323 323 324 325 326 326 327 327 326 326 325 324 324 324 323 323 323 322 320 319 317 316 314 313 311 310 308 306 304 302 299 296
237 238 239 240 240 239 238 235 232 230 229 229 229 230 232 234 238 242 247 251 252 254 256 260 264 269 275 282 289 295 302 307 310 313 317 321 321 321 322 323 323 323 323 323 322 320 319 318 318 320 322 323 324 324 325 326 327 328 329 329 329 328 327 326 326 326 326 325 325 325 325 323 322 321 320 319 318 316 313 311 308 307 304 301 298
235 236 237 238 240 240 238 237 236 234 233 233 234 237 239 241 243 247 252 254 255 257 260 265 269 274 280 286 291 296 301 305 308 313 318 320 320 321 323 323 323 323 323 322 321 319 318 318 319 321 323 324 324 325 327 328 329 330 331 331 330 329 329 329 329 329 329 328 328 327 327 326 326 326 326 325 323 321 318 315 312 311 309 306 302
233 234 234 235 238 241 242 243 242 240 240 240 242 244 245 247 249 253 256 258 259 262 267 271 276 280 285 288 292 296 299 303 308 313 317 318 320 322 323 324 324 323 323 321 320 318 317 318 320 322 324 325 326 328 329 331 332 332 332 332 332 331 331 331 331 332 332 331 330 330 330 331 332 332 331 329 327 325 323 320 318 318 317 314 312
233 233 235 237 239 242 246 247 247 247 247 247 248 250 251 252 255 259 263 265 265 268 271 275 280 283 286 289 292 295 298 302 308 313 316 318 320 322 323 323 323 322 321 320 318 317 317 318 321 323 325 326 328 330 332 332 334 334 334 333 333 334 334 333 334 334 334 333 333 333 334 336 336 336 335 334 332 330 328 324 322 321 320 319 318
234 234 236 239 242 246 248 250 252 253 253 254 255 255 255 257 261 266 269 270 270 271 274 277 281 283 286 289 291 294 297 302 308 312 315 317 319 321 322 322 322 321 320 318 317 316 317 320 322 324 326 328 331 332 333 334 335 335 335 335 336 336 336 336 335 335 335 336 336 337 338 339 340 340 340 339 338 337 333 327 323 320 318 317 315
240 240 240 241 244 248 250 253 254 255 257 258 259 259 260 263 266 270 272 273 274 274 275 278 280 282 285 287 290 293 297 303 308 311 313 316 318 320 320 321 320 319 318 316 315 315 318 321 323 325 328 331 332 333 334 335 336 337 337 337 337 338 337 337 337 337 338 338 339 340 341 342 342 343 344 344 343 341 336 330 327 324 320 317 316
247 247 246 246 246 249 252 255 256 258 259 260 262 263 265 267 270 273 274 275 275 275 274 276 278 280 283 286 289 292 297 303 307 309 312 315 317 318 319 319 319 317 316 315 314 316 319 321 324 327 330 332 332 333 335 336 338 338 339 339 339 339 339 338 338 339 340 341 342 343 344 344 345 346 348 350 350 347 342 337 333 329 326 323 322
249 251 252 252 252 253 255 257 260 261 262 264 265 266 267 268 271 273 275 276 276 275 273 273 275 278 281 285 288 292 297 302 305 308 311 313 315 317 317 317 317 316 315 314 314 316 319 322 325 329 331 332 333 334 335 337 338 339 340 340 340 340 339 340 341 342 343 344 345 346 346 347 348 349 351 355 355 351 345 340 335 330 328 327 327
250 253 256 257 258 258 258 260 262 264 265 267 268 269 270 271 273 275 277 278 277 276 274 273 274 277 280 284 287 291 297 301 304 307 309 311 314 315 316 316 315 315 314 313 314 316 319 323 327 331 332 333 334 335 337 339 340 340 340 341 341 341 341 342 344 346 346 347 348 349 349 351 353 354 355 358 359 356 351 345 339 333 332 333 333
252 255 257 259 261 261 262 262 263 264 266 267 268 270 271 273 274 276 277 278 278 277 275 273 272 274 278 282 286 291 297 301 303 304 307 310 313 314 314 314 314 313 313 313 314 317 321 326 330 332 332 333 335 337 339 340 341 341 342 342 342 342 343 345 347 349 350 351 351 351 353 355 358 359 359 1 2 1 358 354 347 341 338 338 338
253 255 257 260 262 263 264 264 265 266 267 269 270 271 272 273 274 275 277 278 277 275 274 272 268 269 274 280 286 293 298 299 300 302 307 311 313 313 313 313 313 312 312 312 314 318 323 328 331 332 333 335 337 339 340 341 342 342 343 343 344 345 347 349 350 352 354 354 354 355 357 359 1 3 3 4 5 4 3 1 356 351 346 342 341
256 257 258 260 262 263 264 265 266 268 270 271 272 272 272 273 274 275 277 277 277 276 275 270 264 264 273 282 288 293 295 295 299 304 308 312 313 313 313 312 311 311 311 312 315 320 325 330 331 332 334 336 338 340 342 342 342 343 344 344 346 348 350 352 353 355 357 357 358 359 360 1 3 4 4 5 6 6 6 5 3 359 355 350 345
258 260 262 264 265 265 265 266 267 270 271 271 271 271 274 275 275 276 276 278 283 281 271 261 260 267 278 285 288 290 292 295 301 307 310 312 312 312 311 310 310 310 311 312 316 321 327 330 331 333 335 338 339 341 342 342 343 343 343 344 347 349 351 353 355 357 358 359 1 2 2 3 3 4 4 4 5 6 7 7 6 5 4 358 351
258 261 263 265 265 266 267 267 268 270 271 272 272 274 276 276 277 280 279 280 287 282 262 255 270 280 282 285 287 289 293 299 304 308 310 311 311 310 309 308 309 310 311 313 317 323 328 330 331 334 336 339 340 341 342 342 342 342 343 345 348 349 351 353 355 357 359 0 2 2 3 2 2 2 2 1 3 5 7 8 8 7 6 3 357
257 258 259 261 261 263 265 266 268 270 271 274 277 278 277 276 279 285 284 281 284 280 267 273 286 285 283 286 288 291 296 301 305 308 309 310 310 308 308 307 308 309 310 313 318 324 328 329 331 334 337 338 339 340 341 342 341 342 344 346 348 350 352 354 356 357 359 360 1 2 2 1 1 1 0 359 0 2 5 8 9 8 7 5 3
255 256 257 258 260 262 265 266 268 269 271 274 278 279 279 278 282 288 288 283 282 283 283 286 288 286 287 288 287 291 297 301 305 308 309 310 309 308 307 307 307 308 309 313 318 323 327 328 331 335 337 338 338 339 341 341 340 341 343 345 347 349 351 354 355 356 357 358 359 359 360 0 0 360 359 359 358 359 2 7 9 10 9 8 7
255 257 258 260 263 264 266 267 268 270 271 274 277 279 279 282 285 287 285 281 282 284 286 288 287 286 286 285 287 292 297 302 305 308 310 310 309 308 307 306 306 307 309 313 318 323 325 327 330 334 335 336 337 339 339 339 339 340 342 343 344 346 348 350 351 352 354 356 357 357 358 359 360 359 359 358 358 358 0 4 7 9 11 10 8
257 259 260 262 264 265 267 268 269 270 272 274 277 279 282 286 288 286 281 278 280 284 289 291 289 286 284 285 289 293 297 301 305 308 310 310 309 309 308 306 305 307 310 314 318 322 324 326 330 333 333 334 336 338 338 337 337 338 340 340 341 343 345 346 347 349 352 354 356 356 356 358 358 358 358 358 358 358 359 1 4 7 10 11 10
258 259 260 262 265 266 267 268 269 271 273 275 276 278 282 288 288 282 274 272 278 287 292 291 287 283 283 285 288 291 296 301 305 309 310 310 309 309 308 306 306 306 310 313 317 320 322 324 328 331 331 332 334 337 337 335 334 335 336 337 337 339 340 342 344 346 349 351 353 354 354 356 357 358 358 358 359 359 360 0 2 4 6 8 10
258 260 261 265 267 268 267 267 268 270 272 274 276 278 281 285 285 277 269 272 282 289 290 286 281 280 280 281 285 289 295 300 305 309 310 310 309 308 307 306 306 307 310 312 315 318 320 322 326 328 329 331 333 335 335 333 331 331 332 333 334 336 337 339 341 344 346 348 349 351 352 353 355 356 358 358 359 360 1 1 1 2 3 4 7
262 263 265 266 267 267 267 267 267 268 270 273 276 278 280 283 282 278 273 276 282 285 283 278 276 275 275 278 282 288 295 300 304 307 309 309 309 308 307 306 306 307 309 311 313 315 317 319 323 326 327 329 332 334 333 331 328 328 329 331 333 334 335 337 339 341 343 344 346 347 349 351 353 355 357 358 359 360 1 2 2 1 1 2 4
267 266 266 265 264 264 266 267 267 268 270 273 275 278 281 283 282 279 278 280 282 281 278 275 274 273 273 277 282 288 293 297 301 305 308 308 308 307 306 305 305 306 308 309 311 312 314 317 321 324 326 328 330 331 331 329 327 325 326 328 330 332 333 334 336 338 339 341 343 344 346 348 350 353 355 357 359 360 0 1 3 3 2 2 2
270 267 263 262 262 262 264 266 267 268 269 272 274 277 280 281 280 280 281 282 282 279 276 275 273 272 272 276 281 286 291 293 298 303 306 307 307 306 304 303 303 304 305 306 307 308 311 315 319 322 324 326 328 329 328 327 324 322 322 323 325 327 329 331 333 335 337 338 340 341 344 345 348 351 354 356 358 359 359 360 2 3 3 3 2
268 266 262 262 263 263 263 265 266 268 269 270 273 276 278 278 278 278 280 281 279 276 274 273 271 270 271 275 280 284 288 290 295 301 304 305 305 304 302 302 302 301 301 302 303 305 309 313 318 320 321 323 325 326 326 324 323 321 319 319 320 322 325 327 330 332 334 336 337 339 342 344 346 349 351 353 355 357 359 359 360 2 3 4 5
264 263 262 263 264 264 263 264 266 268 269 270 271 274 276 276 276 275 276 276 275 273 271 269 268 268 271 275 278 282 285 288 292 297 301 303 303 303 302 301 299 299 299 299 300 303 307 311 316 318 318 320 322 323 323 322 321 319 318 317 317 319 322 324 327 330 332 334 336 338 340 342 344 346 348 351 352 354 356 358 358 360 2 4 5
261 261 261 263 264 263 263 264 265 267 269 270 270 271 273 274 273 272 272 274 274 274 272 271 270 271 273 274 275 278 282 286 289 294 298 301 302 302 301 299 297 296 296 296 298 300 304 310 314 315 316 317 319 320 320 320 318 317 318 318 319 320 322 324 327 329 332 333 334 337 338 340 342 344 345 348 350 351 353 355 357 358 360 2 4
259 259 260 261 262 263 263 264 266 267 268 268 269 271 271 271 269 269 272 273 273 273 273 273 272 272 271 270 271 275 280 283 286 290 295 298 299 300 299 296 295 293 293 294 295 297 302 308 312 312 312 314 316 317 318 318 317 318 320 321 323 324 325 327 329 330 332 333 334 335 337 338 340 342 343 345 347 349 350 352 354 356 358 359 1
258 258 258 259 260 261 262 264 265 266 267 269 270 271 268 264 264 269 273 272 270 270 271 271 270 268 266 266 268 273 277 280 282 286 292 295 296 296 295 294 293 291 291 291 291 294 300 304 307 308 309 311 313 315 316 316 317 320 322 324 325 327 328 329 331 332 333 334 334 334 336 337 338 340 342 343 345 346 348 350 352 354 356 357 359
256 257 257 258 259 260 262 263 264 265 266 267 268 269 266 264 266 271 273 271 269 268 268 268 266 263 262 263 266 270 274 277 279 283 288 291 292 292 291 292 291 289 288 288 288 291 296 300 302 304 305 307 310 311 313 315 316 319 322 324 325 327 329 329 331 332 333 333 333 333 334 335 337 338 340 341 343 345 346 348 350 352 353 355 357
255 255 256 257 258 259 261 262 263 263 264 264 265 267 267 267 270 272 271 270 268 267 266 265 262 260 260 263 265 267 271 274 277 279 283 287 288 288 289 290 290 288 285 285 285 287 291 295 297 299 300 302 305 307 309 311 314 317 320 323 324 326 328 328 329 330 331 331 331 332 333 334 336 337 339 341 342 343 345 346 348 349 351 353 354
254 255 256 258 259 260 261 262 262 263 263 263 265 269 271 271 271 272 271 270 269 269 268 264 259 258 260 261 263 265 268 272 273 275 279 283 285 286 288 289 289 287 284 283 283 284 287 290 291 293 295 297 300 303 306 308 312 316 319 321 323 324 326 327 328 329 329 329 330 331 332 333 335 336 338 340 341 342 343 345 346 347 348 350 352
255 256 257 259 260 261 263 263 263 263 263 262 263 267 271 272 272 274 275 273 270 270 269 263 258 258 260 260 261 263 266 269 271 274 278 281 284 286 288 288 287 285 283 281 280 280 282 285 287 288 290 292 295 299 303 306 310 314 317 319 320 322 324 325 326 327 327 328 329 331 332 333 334 336 337 340 341 341 342 343 344 345 346 347 349
256 257 259 260 262 263 264 264 264 264 263 262 261 262 265 268 270 274 276 275 271 270 268 262 257 258 260 260 262 264 265 267 271 273 276 280 283 284 284 284 284 283 280 278 277 277 278 281 283 283 285 288 291 294 298 302 306 310 313 315 318 320 322 324 325 325 326 327 329 331 332 333 334 335 337 339 340 341 341 342 342 343 344 345 347
259 260 261 262 264 265 265 266 267 267 266 265 265 265 267 269 270 272 274 276 274 270 265 259 257 259 261 262 263 264 265 267 270 272 274 278 281 281 281 281 280 279 276 274 273 274 276 278 278 278 279 282 285 288 292 297 301 305 308 311 314 317 320 323 324 324 325 327 328 331 332 333 334 335 337 338 339 339 340 341 341 342 343 343 344
262 263 264 265 266 267 268 269 270 270 270 270 269 269 270 271 272 271 272 275 276 270 264 260 259 261 262 262 262 263 264 267 270 271 273 276 279 279 279 280 278 275 272 270 269 271 273 273 273 274 275 277 280 283 288 292 297 301 304 307 311 314 318 321 322 323 324 326 327 329 332 333 334 335 336 337 338 338 338 339 340 340 341 342 343
264 264 265 266 267 268 269 270 271 272 273 272 271 270 270 270 271 271 271 273 275 273 269 267 265 265 264 262 262 263 264 266 269 271 272 274 276 277 280 280 276 271 269 266 266 268 270 270 271 271 272 274 277 281 285 290 293 297 301 304 308 312 315 318 320 322 324 325 327 329 331 333 334 334 335 336 336 336 336 337 338 339 340 340 341
264 265 266 267 269 270 271 272 272 274 275 274 273 272 270 270 271 272 271 271 272 272 271 270 270 269 268 264 262 263 265 266 268 270 270 271 274 278 280 277 272 268 266 264 263 265 267 268 269 270 271 273 276 279 283 287 290 294 298 301 306 310 313 316 319 321 323 324 326 329 331 333 333 333 334 334 335 335 335 335 336 337 338 338 339
267 269 270 271 272 272 273 274 274 275 276 275 274 273 272 272 272 272 271 271 271 270 270 269 269 270 270 266 264 264 265 266 267 268 269 270 273 276 277 274 268 265 262 260 260 263 264 265 268 269 270 272 275 277 281 285 288 292 295 299 304 308 311 314 317 319 321 323 326 329 331 333 333 333 333 333 334 334 334 334 334 335 336 337 337
270 271 272 274 274 275 276 276 276 276 276 276 275 275 274 273 272 271 272 272 272 271 271 269 267 266 266 267 266 266 265 265 266 266 267 269 270 271 272 270 266 262 259 257 258 260 261 262 265 267 269 272 273 276 279 283 287 290 294 297 301 305 309 312 315 317 319 322 325 328 330 332 332 332 332 333 333 333 333 333 333 333 334 335 335
270 271 272 273 274 275 276 276 277 277 277 276 276 274 273 273 272 272 272 272 272 272 272 270 267 262 261 264 269 270 268 267 267 266 268 270 269 267 268 268 265 260 257 255 255 258 259 260 262 266 268 270 272 274 278 282 285 289 292 296 299 303 307 310 313 315 318 321 324 326 328 330 332 332 332 332 332 332 332 332 332 332 332 332 333
270 270 271 272 273 274 275 276 276 277 276 275 274 273 272 272 272 272 272 272 272 272 272 271 268 263 260 262 268 271 271 271 271 271 274 277 275 270 267 266 263 258 254 253 254 256 258 259 261 264 266 269 271 274 277 281 284 288 291 294 298 301 305 309 312 314 317 320 323 325 326 328 330 331 331 331 331 332 332 331 331 330 330 330 330
271 270 270 270 271 272 273 274 275 275 275 274 273 272 271 271 271 272 272 273 272 272 271 270 267 264 263 263 265 267 270 273 275 275 277 281 281 275 270 265 260 255 252 252 253 255 257 258 260 262 265 268 271 273 277 280 284 287 290 293 296 300 304 308 311 313 316 318 320 322 324 326 328 329 330 330 330 330 331 331 330 329 328 328 328
271 271 270 270 270 270 271 271 272 273 274 274 273 272 270 270 270 270 271 272 272 271 271 269 267 266 266 267 265 265 268 273 276 275 275 278 281 278 272 265 259 254 252 252 254 255 256 258 260 262 264 267 270 273 276 279 283 286 289 292 296 299 303 306 309 312 314 316 318 319 321 324 326 328 328 328 328 329 329 329 329 327 326 326 325
272 272 271 271 270 270 270 271 273 274 275 275 274 273 270 269 269 269 269 271 272 271 271 270 268 267 267 267 266 266 268 273 277 276 274 276 279 278 272 264 258 255 253 253 254 255 257 259 260 262 264 267 270 273 275 279 283 286 290 293 296 298 301 304 308 310 312 313 315 317 319 322 324 325 326 325 326 327 328 328 327 326 325 324 323
271 271 271 271 271 270 271 272 273 274 275 275 275 274 272 270 270 270 270 271 273 274 273 271 268 267 267 267 267 267 269 271 274 274 273 275 278 277 271 264 258 254 254 255 256 256 257 259 260 262 264 267 270 273 275 279 283 286 290 292 295 297 299 303 306 308 310 311 313 314 316 319 321 323 323 323 323 325 326 327 326 325 323 322 321
269 269 269 269 269 270 270 271 272 273 274 274 274 274 273 273 272 272 271 271 273 275 275 272 269 268 267 266 265 265 265 264 266 270 272 274 277 276 271 263 257 254 255 257 257 257 257 259 261 263 265 268 271 273 276 279 283 286 289 291 293 295 298 301 304 306 307 309 311 313 314 316 318 319 320 320 321 323 324 324 324 323 321 320 320
268 268 268 268 268 268 269 270 271 271 272 272 273 273 274 273 273 271 271 271 273 275 275 273 270 268 266 264 263 262 261 261 263 268 271 274 275 274 269 261 256 255 256 257 257 258 259 260 262 264 267 269 271 274 276 279 283 286 288 289 291 294 297 300 302 304 305 307 309 311 313 314 315 316 317 317 318 320 322 322 322 321 320 319 318
268 268 268 268 268 268 268 268 269 269 270 270 271 272 272 272 272 271 271 271 271 272 273 273 272 270 268 267 265 264 264 265 267 269 271 272 273 270 265 259 255 255 257 259 259 260 261 262 263 265 268 270 272 274 277 280 282 284 286 288 291 294 297 299 300 302 304 306 308 309 311 312 313 313 314 314 315 317 319 319 319 319 318 317 317
268 268 268 268 268 269 269 268 268 268 268 268 268 269 269 269 270 270 271 270 270 269 269 270 271 271 271 271 271 271 271 271 271 270 270 271 270 267 263 259 257 258 260 260 260 261 262 263 265 267 268 270 272 275 277 280 282 284 286 289 292 294 296 298 299 301 303 305 307 308 309 310 311 311 311 312 313 315 317 317 317 316 315 314 315
Height
5784 5784 5785 5786 5787 5788 5789 5789 5790 5791 5792 5793 5793 5794 5795 5796 5797 5798 5798 5799 5799 5799 5800 5800 5800 5800 5800 5800 5800 5799 5798 5797 5796 5795 5793 5792 5790 5788 5786 5784 5782 5780 5778 5776 5774 5772 5770 5768 5765 5763 5760 5757 5754 5751 5748 5745 5741 5738 5735 5731 5728 5723 5718 5713 5709 5702 5697 5693 5689 5685 5681 5676 5671 5666 5661 5656 5650 5645 5640 5635 5632 5629 5627 5625 5622
5782 5783 5783 5784 5785 5786 5787 5788 5789 5789 5790 5791 5792 5793 5794 5795 5796 5796 5797 5797 5797 5797 5797 5798 5798 5798 5798 5797 5797 5796 5795 5794 5793 5792 5790 5788 5786 5784 5783 5781 5779 5777 5775 5773 5771 5769 5767 5764 5762 5760 5757 5754 5751 5748 5744 5741 5738 5734 5731 5727 5722 5718 5714 5710 5705 5700 5694 5689 5685 5681 5677 5671 5666 5661 5656 5650 5645 5640 5634 5629 5624 5621 5619 5617 5615
5780 5781 5782 5782 5783 5784 5785 5786 5787 5787 5788 5789 5790 5791 5792 5793 5794 5794 5795 5795 5795 5795 5795 5795 5795 5795 5795 5795 5794 5793 5792 5791 5790 5789 5787 5785 5783 5782 5780 5778 5776 5774 5772 5770 5768 5766 5764 5761 5759 5756 5753 5751 5748 5744 5741 5738 5734 5730 5726 5722 5717 5713 5709 5705 5700 5696 5691 5685 5681 5677 5673 5667 5661 5656 5651 5645 5639 5634 5628 5623 5618 5614 5611 5609 5607
5779 5779 5780 5781 5782 5783 5783 5784 5785 5786 5787 5787 5788 5789 5790 5791 5792 5792 5793 5793 5793 5793 5793 5793 5793 5793 5792 5792 5791 5790 5789 5788 5787 5786 5784 5782 5781 5779 5777 5775 5773 5771 5769 5767 5765 5763 5760 5758 5755 5753 5750 5748 5744 5741 5737 5734 5730 5726 5722 5717 5713 5709 5704 5700 5695 5691 5687 5682 5677 5673 5669 5664 5657 5652 5647 5641 5634 5628 5621 5616 5612 5608 5604 5601 5599
5777 5778 5779 5780 5780 5781 5782 5783 5784 5784 5785 5786 5787 5788 5789 5789 5790 5790 5791 5791 5791 5790 5790 5790 5790 5790 5790 5789 5788 5787 5787 5786 5784 5783 5781 5779 5778 5776 5774 5771 5769 5768 5766 5764 5762 5759 5757 5755 5752 5750 5747 5744 5741 5737 5734 5730 5726 5722 5718 5714 5709 5705 5700 5695 5692 5688 5684 5679 5674 5670 5665 5660 5654 5648 5643 5637 5631 5625 5617 5610 5606 5603 5599 5596 5592
5776 5777 5777 5778 5779 5780 5781 5782 5782 5783 5784 5785 5785 5786 5787 5787 5788 5788 5788 5788 5788 5788 5788 5788 5788 5787 5787 5786 5786 5785 5784 5783 5781 5779 5778 5776 5774 5773 5770 5768 5767 5765 5763 5761 5758 5756 5754 5752 5749 5747 5744 5741 5737 5734 5730 5726 5723 5718 5714 5710 5706 5701 5696 5692 5689 5685 5681 5676 5672 5667 5662 5657 5652 5645 5639 5633 5626 5621 5616 5609 5604 5600 5596 5593 5589
5774 5775 5776 5777 5778 5778 5779 5780 5781 5782 5782 5783 5784 5784 5785 5785 5785 5786 5786 5786 5786 5786 5786 5785 5785 5785 5784 5783 5783 5782 5781 5779 5778 5776 5775 5773 5771 5770 5768 5766 5764 5762 5760 5758 5756 5753 5751 5749 5747 5744 5741 5737 5734 5730 5727 5723 5720 5715 5711 5707 5702 5698 5694 5690 5686 5683 5679 5674 5669 5664 5660 5655 5649 5643 5636 5630 5623 5617 5613 5609 5604 5599 5595 5591 5588
5773 5773 5774 5775 5776 5777 5778 5778 5779 5780 5780 5781 5781 5782 5782 5783 5783 5783 5783 5783 5783 5783 5783 5783 5782 5782 5781 5780 5780 5779 5777 5776 5775 5773 5772 5770 5769 5767 5765 5763 5761 5759 5757 5755 5753 5751 5749 5746 5744 5741 5737 5734 5730 5727 5724 5720 5716 5712 5708 5703 5699 5696 5692 5688 5684 5680 5677 5672 5667 5662 5657 5652 5647 5641 5635 5628 5622 5616 5610 5606 5602 5598 5594 5589 5586
5771 5772 5772 5773 5774 5775 5776 5776 5777 5778 5778 5778 5779 5780 5780 5781 5781 5781 5781 5781 5781 5781 5780 5780 5779 5779 5778 5777 5776 5775 5774 5773 5772 5770 5769 5767 5766 5764 5762 5760 5758 5756 5754 5752 5749 5748 5746 5743 5741 5738 5734 5731 5728 5724 5721 5717 5713 5709 5705 5701 5697 5693 5690 5686 5682 5678 5674 5670 5665 5660 5655 5650 5645 5639 5632 5625 5619 5613 5608 5603 5598 5594 5591 5586 5582
5769 5769 5770 5771 5772 5772 5773 5774 5775 5775 5775 5776 5776 5777 5777 5778 5778 5778 5778 5778 5778 5777 5777 5777 5776 5776 5775 5774 5773 5772 5771 5770 5769 5768 5766 5765 5763 5761 5759 5757 5755 5753 5750 5748 5746 5744 5743 5740 5737 5734 5731 5728 5725 5721 5718 5714 5711 5707 5703 5700 5696 5692 5688 5684 5680 5676 5671 5667 5662 5658 5652 5647 5642 5636 5630 5623 5616 5610 5605 5601 5596 5591 5587 5583 5579
5766 5767 5768 5769 5769 5770 5771 5771 5772 5772 5772 5773 5773 5774 5774 5775 5775 5775 5775 5775 5774 5774 5774 5774 5773 5772 5772 5771 5770 5769 5768 5767 5766 5765 5763 5762 5760 5758 5755 5753 5752 5749 5747 5745 5743 5741 5739 5737 5734 5731 5728 5725 5721 5718 5714 5711 5707 5703 5700 5697 5694 5690 5687 5682 5678 5674 5669 5665 5660 5655 5650 5645 5640 5634 5627 5621 5614 5608 5603 5598 5593 5588 5584 5579 5575
5764 5765 5765 5766 5767 5767 5768 5768 5768 5769 5769 5769 5770 5770 5771 5771 5771 5772 5772 5771 5771 5770 5770 5770 5770 5769 5768 5768 5767 5766 5765 5764 5763 5762 5760 5758 5756 5754 5752 5750 5748 5746 5744 5742 5740 5738 5736 5733 5730 5727 5724 5721 5718 5715 5711 5708 5704 5700 5697 5694 5690 5687 5684 5680 5676 5672 5667 5663 5658 5654 5649 5643 5638 5632 5625 5619 5613 5607 5602 5597 5591 5586 5581 5576 5571
5762 5762 5763 5764 5764 5765 5765 5765 5766 5766 5766 5767 5767 5767 5767 5768 5768 5768 5768 5768 5766 5765 5765 5765 5765 5765 5765 5764 5763 5762 5762 5761 5760 5758 5757 5755 5753 5751 5749 5747 5745 5743 5741 5739 5737 5735 5733 5730 5727 5724 5721 5718 5715 5711 5708 5705 5701 5698 5694 5691 5688 5684 5681 5677 5674 5670 5666 5661 5657 5652 5646 5641 5635 5630 5624 5618 5613 5607 5602 5597 5591 5586 5580 5574 5569
5759 5760 5761 5761 5762 5762 5763 5763 5763 5763 5764 5764 5764 5764 5764 5764 5764 5764 5764 5763 5761 5760 5760 5760 5761 5762 5762 5761 5760 5759 5759 5758 5757 5755 5753 5751 5749 5748 5746 5744 5742 5740 5738 5736 5734 5732 5729 5727 5724 5721 5718 5715 5711 5708 5705 5701 5698 5695 5692 5689 5686 5682 5679 5675 5672 5668 5664 5660 5656 5650 5645 5639 5633 5628 5622 5617 5612 5607 5602 5597 5591 5585 5579 5573 5568
5756 5757 5758 5759 5759 5759 5759 5760 5760 5761 5761 5760 5760 5760 5760 5760 5760 5759 5759 5758 5757 5755 5755 5756 5757 5757 5757 5757 5757 5756 5756 5755 5753 5751 5749 5748 5746 5744 5743 5741 5739 5736 5734 5733 5731 5729 5726 5723 5721 5718 5715 5712 5708 5705 5702 5699 5696 5693 5690 5688 5685 5681 5678 5674 5671 5667 5663 5659 5655 5649 5644 5638 5632 5627 5621 5616 5612 5608 5602 5597 5591 5585 5580 5574 5568
5754 5754 5755 5755 5756 5756 5756 5756 5757 5757 5757 5756 5756 5757 5757 5757 5756 5755 5755 5755 5754 5751 5752 5754 5754 5754 5754 5753 5753 5753 5752 5751 5750 5748 5746 5745 5743 5741 5739 5737 5735 5733 5732 5730 5728 5726 5723 5720 5718 5715 5712 5709 5706 5703 5700 5696 5694 5691 5688 5685 5682 5679 5676 5673 5669 5666 5662 5658 5654 5648 5643 5637 5631 5626 5621 5616 5611 5607 5603 5598 5591 5585 5580 5575 5569
5751 5751 5752 5752 5752 5752 5753 5753 5753 5754 5753 5753 5753 5753 5753 5752 5753 5752 5751 5751 5751 5750 5750 5751 5751 5750 5750 5750 5750 5750 5749 5748 5746 5745 5743 5741 5740 5738 5736 5734 5732 5730 5729 5727 5725 5723 5720 5717 5715 5712 5709 5706 5703 5700 5697 5694 5692 5689 5686 5683 5680 5677 5674 5671 5668 5664 5661 5657 5652 5648 5643 5637 5632 5626 5621 5616 5611 5606 5602 5597 5591 5585 5579 5573 5567
5747 5748 5748 5748 5749 5749 5749 5749 5750 5750 5750 5749 5749 5750 5749 5749 5749 5749 5748 5747 5748 5748 5748 5747 5747 5747 5747 5747 5747 5746 5745 5744 5743 5741 5740 5738 5736 5735 5733 5731 5729 5727 5726 5724 5722 5720 5717 5715 5712 5709 5707 5704 5701 5698 5695 5692 5690 5687 5685 5682 5679 5676 5673 5670 5667 5663 5660 5656 5652 5647 5643 5638 5632 5627 5622 5616 5611 5605 5600 5595 5591 5585 5579 5572 5566
5744 5744 5745 5745 5745 5746 5746 5746 5746 5746 5746 5746 5746 5746 5746 5746 5745 5745 5745 5745 5745 5745 5744 5744 5744 5744 5744 5744 5744 5743 5742 5741 5740 5738 5737 5735 5733 5731 5730 5728 5726 5725 5723 5721 5719 5717 5715 5712 5710 5707 5704 5702 5699 5696 5693 5690 5688 5685 5683 5681 5678 5675 5672 5669 5667 5663 5660 5656 5652 5647 5643 5638 5633 5628 5623 5617 5612 5605 5599 5594 5589 5585 5579 5572 5566
5740 5741 5741 5742 5742 5742 5742 5742 5743 5743 5743 5743 5743 5743 5742 5742 5742 5741 5741 5741 5741 5741 5741 5741 5741 5741 5741 5741 5740 5739 5738 5738 5736 5735 5733 5732 5730 5728 5726 5725 5723 5722 5720 5718 5716 5714 5712 5710 5707 5704 5702 5700 5697 5694 5691 5689 5686 5684 5681 5679 5677 5674 5671 5668 5665 5662 5659 5655 5651 5647 5642 5638 5633 5629 5624 5619 5613 5607 5600 5593 5588 5583 5578 5573 5567
5736 5737 5737 5738 5739 5739 5739 5739 5739 5739 5739 5740 5740 5739 5739 5739 5738 5737 5737 5738 5738 5738 5738 5738 5738 5738 5738 5737 5736 5736 5735 5734 5733 5732 5730 5729 5727 5725 5723 5722 5720 5718 5717 5715 5713 5711 5709 5707 5704 5702 5700 5697 5695 5692 5689 5687 5685 5682 5680 5678 5675 5673 5670 5667 5664 5661 5657 5654 5650 5646 5642 5638 5634 5629 5625 5620 5614 5608 5602 5595 5588 5582 5577 5573 5568
5732 5732 5733 5734 5735 5735 5735 5735 5735 5735 5735 5735 5736 5736 5736 5736 5735 5734 5734 5734 5735 5735 5735 5735 5735 5735 5734 5734 5733 5732 5731 5730 5729 5728 5727 5726 5724 5722 5720 5719 5717 5715 5714 5712 5710 5708 5706 5704 5702 5700 5697 5695 5692 5690 5687 5685 5683 5681 5678 5676 5674 5671 5668 5665 5662 5659 5656 5652 5649 5645 5642 5638 5634 5630 5625 5620 5615 5609 5603 5597 5590 5583 5577 5573 5568
5727 5728 5729 5729 5730 5730 5730 5731 5731 5731 5731 5731 5732 5732 5732 5732 5732 5731 5731 5732 5732 5731 5731 5731 5731 5731 5731 5730 5729 5729 5728 5727 5726 5725 5724 5722 5721 5719 5717 5716 5714 5712 5711 5709 5707 5706 5704 5702 5699 5697 5695 5692 5690 5687 5685 5683 5681 5679 5676 5674 5672 5669 5666 5664 5661 5658 5654 5651 5648 5644 5641 5638 5634 5630 5625 5620 5615 5609 5604 5599 5593 5586 5580 5573 5568
5723 5724 5724 5725 5725 5726 5726 5726 5726 5727 5727 5727 5727 5728 5728 5728 5728 5728 5728 5728 5728 5728 5727 5727 5727 5727 5727 5726 5726 5725 5725 5724 5723 5722 5720 5719 5717 5716 5714 5712 5711 5709 5708 5706 5704 5703 5701 5699 5697 5694 5692 5690 5687 5685 5683 5681 5679 5677 5675 5672 5670 5667 5665 5662 5659 5656 5653 5650 5647 5643 5640 5637 5633 5629 5624 5620 5615 5610 5605 5600 5595 5589 5583 5576 5570
5717 5719 5720 5720 5720 5721 5722 5722 5722 5722 5723 5723 5724 5724 5724 5724 5724 5724 5724 5724 5724 5724 5723 5723 5723 5723 5723 5723 5722 5722 5721 5720 5719 5718 5717 5715 5714 5712 5711 5709 5708 5706 5705 5703 5701 5700 5698 5696 5694 5692 5690 5687 5685 5683 5681 5679 5677 5675 5673 5670 5668 5666 5663 5660 5657 5654 5651 5648 5645 5642 5639 5635 5632 5628 5623 5619 5615 5611 5606 5601 5597 5592 5587 5580 5574
5712 5713 5714 5714 5715 5717 5717 5718 5718 5718 5719 5720 5720 5720 5720 5720 5720 5720 5720 5720 5720 5720 5720 5720 5719 5719 5719 5719 5718 5718 5718 5717 5716 5715 5713 5712 5710 5709 5707 5706 5704 5703 5701 5700 5698 5697 5695 5693 5691 5689 5687 5685 5683 5681 5679 5677 5675 5673 5671 5669 5666 5664 5661 5659 5656 5653 5650 5647 5644 5640 5637 5634 5630 5626 5623 5619 5615 5611 5607 5603 5598 5594 5590 5584 5578
5708 5708 5708 5709 5710 5712 5713 5713 5713 5714 5714 5715 5716 5716 5716 5716 5716 5716 5716 5716 5716 5716 5715 5715 5715 5715 5715 5715 5715 5714 5714 5713 5712 5711 5710 5708 5707 5705 5704 5702 5701 5700 5698 5697 5695 5694 5692 5691 5689 5687 5685 5683 5681 5679 5677 5675 5673 5671 5669 5667 5664 5662 5659 5657 5654 5651 5648 5645 5642 5639 5635 5632 5629 5625 5622 5618 5615 5611 5607 5603 5599 5595 5590 5586 5581
5703 5703 5703 5704 5705 5707 5708 5708 5709 5709 5710 5710 5711 5711 5711 5711 5711 5711 5711 5711 5711 5711 5711 5711 5711 5711 5711 5711 5711 5710 5710 5709 5709 5707 5706 5705 5704 5702 5700 5699 5697 5696 5695 5694 5692 5691 5689 5688 5686 5684 5682 5680 5678 5677 5675 5673 5671 5669 5667 5665 5662 5660 5657 5655 5652 5649 5646 5643 5640 5637 5634 5631 5628 5625 5621 5618 5614 5610 5606 5603 5599 5594 5590 5586 5582
5698 5698 5699 5700 5701 5702 5703 5703 5704 5705 5705 5705 5706 5706 5706 5706 5706 5706 5706 5706 5707 5707 5707 5707 5707 5707 5707 5707 5706 5706 5705 5705 5704 5704 5703 5702 5700 5699 5697 5695 5694 5693 5692 5690 5689 5688 5686 5685 5683 5681 5680 5678 5676 5674 5673 5671 5669 5667 5665 5662 5660 5657 5655 5652 5650 5647 5644 5641 5639 5636 5633 5630 5627 5624 5620 5617 5613 5609 5606 5602 5598 5594 5590 5586 5583
5693 5694 5694 5696 5696 5697 5698 5699 5699 5700 5700 5700 5700 5701 5701 5701 5701 5701 5701 5701 5701 5702 5702 5702 5703 5703 5703 5702 5701 5701 5701 5701 5700 5699 5699 5698 5696 5695 5693 5691 5690 5689 5688 5687 5686 5684 5683 5681 5680 5678 5677 5675 5673 5672 5670 5669 5667 5664 5662 5660 5658 5655 5653 5650 5648 5645 5642 5640 5637 5634 5631 5629 5625 5622 5619 5616 5612 5609 5605 5601 5598 5594 5590 5586 5582
5689 5689 5690 5691 5692 5692 5693 5694 5695 5695 5695 5695 5696 5696 5696 5696 5696 5697 5696 5696 5696 5697 5697 5698 5698 5699 5698 5697 5697 5697 5697 5696 5696 5695 5695 5694 5692 5691 5689 5687 5686 5685 5684 5683 5682 5681 5679 5678 5676 5675 5673 5672 5670 5669 5668 5666 5664 5662 5660 5658 5656 5654 5651 5649 5646 5644 5641 5638 5636 5633 5630 5627 5624 5621 5618 5614 5611 5608 5604 5601 5597 5593 5590 5586 5582
5685 5685 5685 5686 5687 5688 5688 5689 5690 5690 5690 5691 5691 5691 5691 5691 5692 5692 5692 5692 5692 5692 5692 5693 5693 5693 5692 5692 5692 5692 5692 5692 5692 5691 5690 5689 5688 5687 5685 5684 5683 5682 5681 5680 5678 5677 5676 5674 5673 5671 5670 5669 5667 5666 5665 5663 5662 5660 5658 5656 5654 5652 5650 5647 5644 5642 5639 5637 5634 5631 5628 5625 5622 5619 5616 5613 5609 5606 5603 5600 5596 5593 5589 5586 5582
5680 5680 5681 5681 5682 5683 5683 5684 5685 5686 5686 5687 5687 5687 5687 5687 5687 5687 5687 5687 5687 5687 5688 5688 5688 5688 5687 5687 5687 5687 5687 5687 5687 5686 5685 5685 5684 5683 5681 5680 5679 5678 5677 5676 5675 5673 5672 5671 5669 5668 5667 5666 5664 5663 5662 5661 5659 5657 5656 5654 5652 5650 5648 5645 5643 5640 5638 5635 5632 5629 5627 5624 5621 5618 5615 5611 5608 5605 5602 5599 5595 5592 5589 5585 5582
5675 5676 5676 5676 5677 5678 5679 5679 5680 5681 5682 5683 5683 5683 5682 5682 5682 5682 5682 5682 5682 5682 5683 5683 5683 5682 5682 5682 5682 5683 5683 5683 5682 5681 5681 5680 5680 5679 5677 5676 5675 5674 5673 5672 5671 5670 5669 5667 5666 5665 5664 5663 5662 5660 5659 5657 5656 5655 5653 5651 5650 5648 5646 5643 5641 5638 5636 5633 5630 5627 5625 5622 5619 5616 5613 5610 5607 5604 5600 5597 5594 5591 5588 5585 5582
5671 5671 5671 5671 5672 5673 5674 5674 5675 5676 5677 5678 5678 5678 5677 5676 5676 5677 5677 5677 5677 5677 5677 5677 5678 5677 5676 5677 5678 5678 5678 5678 5677 5677 5677 5676 5675 5674 5673 5672 5671 5670 5669 5668 5667 5666 5665 5664 5663 5662 5661 5660 5659 5657 5656 5655 5653 5652 5650 5649 5647 5645 5643 5641 5639 5636 5634 5631 5628 5625 5622 5620 5617 5614 5611 5608 5605 5602 5599 5596 5593 5590 5587 5584 5580
5666 5667 5667 5667 5668 5668 5669 5669 5670 5671 5672 5673 5673 5673 5673 5672 5671 5672 5672 5672 5672 5672 5672 5672 5672 5672 5672 5672 5673 5674 5674 5673 5673 5673 5672 5672 5671 5670 5668 5667 5666 5665 5664 5664 5663 5662 5661 5660 5659 5659 5658 5657 5656 5654 5653 5652 5650 5649 5648 5646 5645 5643 5641 5639 5636 5634 5632 5629 5626 5623 5621 5618 5615 5612 5609 5607 5604 5601 5598 5595 5592 5589 5586 5582 5579
5662 5662 5662 5662 5663 5663 5664 5664 5665 5666 5667 5668 5668 5668 5668 5667 5666 5666 5666 5666 5666 5666 5667 5667 5667 5667 5667 5668 5668 5669 5669 5668 5668 5668 5668 5667 5666 5665 5663 5662 5661 5660 5660 5659 5658 5658 5657 5657 5656 5655 5654 5653 5652 5651 5650 5649 5648 5646 5645 5644 5642 5640 5638 5636 5634 5632 5629 5627 5624 5621 5618 5616 5613 5610 5607 5605 5602 5599 5596 5593 5590 5587 5584 5581 5578
5657 5657 5658 5658 5658 5658 5659 5659 5660 5660 5661 5662 5663 5662 5662 5662 5661 5661 5660 5660 5661 5661 5662 5662 5662 5662 5661 5662 5663 5663 5663 5664 5664 5664 5663 5662 5661 5660 5659 5658 5657 5656 5655 5654 5654 5654 5653 5653 5652 5652 5651 5650 5649 5648 5647 5646 5644 5643 5642 5640 5639 5637 5635 5634 5632 5629 5627 5624 5622 5619 5616 5613 5610 5608 5605 5602 5600 5597 5594 5591 5589 5586 5583 5580 5577
5653 5653 5653 5653 5653 5654 5654 5654 5655 5655 5656 5656 5657 5656 5656 5656 5655 5655 5655 5655 5655 5656 5657 5657 5658 5657 5656 5657 5658 5658 5658 5658 5658 5658 5657 5656 5655 5655 5654 5653 5652 5650 5650 5650 5650 5649 5649 5648 5648 5648 5647 5646 5645 5644 5643 5642 5641 5640 5639 5637 5636 5634 5632 5631 5629 5627 5624 5622 5619 5616 5614 5611 5608 5605 5603 5600 5597 5595 5592 5589 5587 5584 5581 5578 5576
5648 5648 5648 5648 5649 5649 5649 5649 5649 5650 5650 5651 5651 5651 5651 5650 5650 5650 5650 5649 5650 5650 5651 5651 5652 5651 5650 5651 5652 5652 5652 5652 5652 5652 5651 5650 5650 5649 5648 5647 5646 5645 5645 5645 5645 5645 5644 5644 5644 5644 5643 5643 5642 5641 5640 5639 5638 5636 5635 5634 5632 5631 5629 5627 5626 5624 5622 5619 5617 5614 5611 5608 5605 5603 5600 5598 5595 5592 5590 5587 5584 5582 5579 5577 5574
5643 5643 5643 5643 5643 5644 5644 5644 5644 5644 5644 5645 5645 5645 5645 5645 5644 5644 5644 5644 5644 5644 5645 5645 5645 5645 5645 5645 5646 5646 5646 5645 5645 5645 5644 5644 5643 5643 5642 5641 5640 5640 5639 5639 5640 5640 5640 5640 5640 5640 5640 5639 5638 5637 5636 5635 5634 5633 5631 5630 5629 5627 5626 5624 5623 5621 5619 5616 5614 5611 5609 5606 5603 5600 5598 5595 5592 5590 5587 5585 5582 5579 5577 5575 5572
5639 5639 5639 5638 5639 5639 5639 5639 5639 5639 5639 5639 5639 5639 5639 5638 5638 5638 5638 5639 5639 5639 5639 5639 5638 5638 5639 5639 5640 5640 5639 5639 5639 5639 5638 5638 5637 5637 5636 5635 5634 5634 5634 5634 5635 5635 5635 5636 5636 5636 5635 5635 5634 5633 5632 5631 5630 5629 5628 5627 5625 5624 5622 5621 5619 5617 5615 5613 5611 5608 5606 5603 5600 5597 5595 5592 5590 5587 5585 5582 5579 5577 5574 5572 5570
5634 5634 5634 5634 5634 5634 5634 5634 5634 5634 5634 5634 5633 5633 5633 5633 5633 5633 5633 5633 5633 5633 5633 5633 5632 5632 5632 5633 5633 5633 5633 5633 5634 5634 5634 5633 5632 5631 5630 5629 5629 5629 5629 5629 5630 5630 5631 5631 5631 5631 5631 5631 5630 5629 5628 5627 5626 5625 5624 5623 5621 5620 5619 5617 5615 5614 5612 5610 5607 5605 5603 5600 5597 5594 5592 5589 5587 5584 5582 5579 5577 5574 5571 5569 5567
5629 5629 5629 5629 5629 5629 5629 5629 5629 5629 5628 5628 5628 5628 5628 5627 5627 5627 5627 5627 5627 5627 5627 5626 5626 5626 5626 5626 5626 5627 5627 5628 5628 5629 5629 5628 5627 5626 5625 5624 5623 5624 5624 5625 5626 5626 5626 5627 5627 5627 5627 5626 5626 5625 5624 5623 5622 5621 5620 5619 5618 5616 5615 5613 5612 5610 5608 5606 5604 5602 5600 5597 5595 5592 5589 5586 5584 5581 5579 5576 5574 5571 5569 5566 5564
5624 5624 5624 5624 5624 5625 5624 5624 5624 5624 5623 5623 5623 5622 5622 5622 5622 5622 5622 5621 5621 5621 5621 5620 5621 5621 5620 5620 5621 5621 5622 5622 5623 5623 5623 5623 5622 5621 5620 5619 5619 5619 5620 5620 5621 5622 5622 5622 5622 5622 5622 5622 5621 5621 5620 5619 5618 5617 5616 5615 5614 5612 5611 5609 5607 5606 5604 5602 5600 5598 5596 5594 5591 5589 5586 5583 5581 5578 5576 5573 5571 5568 5566 5563 5561
5619 5619 5619 5619 5619 5619 5619 5619 5619 5619 5618 5618 5617 5617 5617 5617 5616 5616 5616 5616 5616 5615 5615 5615 5615 5615 5615 5615 5616 5616 5616 5617 5617 5616 5617 5617 5616 5615 5614 5614 5614 5615 5615 5616 5616 5617 5617 5618 5618 5618 5618 5618 5617 5616 5616 5615 5614 5613 5612 5611 5609 5608 5606 5605 5603 5602 5600 5598 5596 5594 5592 5590 5588 5585 5583 5580 5577 5575 5573 5570 5567 5565 5562 5560 5558
5614 5614 5614 5614 5614 5614 5613 5613 5613 5613 5613 5613 5612 5612 5612 5611 5611 5611 5611 5611 5610 5610 5609 5608 5608 5609 5609 5610 5610 5610 5611 5611 5611 5611 5611 5611 5610 5609 5609 5609 5610 5610 5611 5611 5612 5612 5613 5613 5613 5613 5613 5613 5613 5612 5611 5611 5610 5608 5607 5606 5605 5603 5602 5601 5599 5597 5595 5593 5592 5590 5588 5586 5584 5582 5579 5577 5574 5571 5569 5566 5564 5561 5559 5556 5554
5609 5609 5609 5608 5608 5608 5608 5608 5608 5608 5608 5608 5607 5607 5606 5606 5606 5606 5606 5605 5605 5604 5603 5602 5602 5603 5603 5604 5604 5604 5604 5605 5605 5605 5605 5605 5604 5604 5604 5605 5605 5606 5606 5606 5607 5608 5608 5608 5609 5609 5609 5609 5608 5608 5607 5606 5605 5604 5603 5601 5600 5599 5597 5596 5594 5593 5591 5589 5587 5585 5583 5581 5579 5577 5575 5573 5570 5568 5565 5562 5560 5557 5555 5553 5550
5603 5603 5603 5603 5603 5603 5603 5603 5603 5602 5602 5602 5602 5602 5601 5601 5601 5601 5600 5600 5600 5599 5598 5598 5598 5598 5598 5598 5598 5599 5599 5599 5599 5600 5600 5599 5599 5599 5599 5600 5601 5602 5602 5602 5602 5603 5603 5604 5604 5604 5604 5604 5604 5603 5602 5601 5600 5599 5598 5596 5595 5594 5593 5591 5590 5588 5586 5584 5582 5580 5578 5576 5574 5572 5570 5568 5566 5563 5561 5558 5555 5553 5550 5548 5546
5597 5597 5597 5597 5597 5597 5597 5597 5597 5597 5597 5597 5597 5596 5596 5596 5596 5596 5595 5595 5595 5594 5594 5594 5594 5594 5594 5594 5594 5594 5594 5594 5594 5594 5594 5594 5594 5594 5595 5596 5596 5597 5597 5597 5597 5598 5599 5599 5600 5600 5600 5599 5599 5598 5597 5596 5595 5594 5592 5591 5590 5589 5588 5586 5584 5582 5580 5578 5576 5574 5572 5570 5568 5566 5565 5563 5561 5559 5556 5553 5551 5548 5546 5543 5541
5591 5591 5591 5591 5591 5591 5591 5591 5591 5591 5591 5591 5591 5591 5591 5591 5591 5590 5590 5590 5590 5590 5590 5590 5590 5590 5590 5590 5590 5590 5589 5589 5589 5589 5589 5589 5589 5589 5590 5591 5592 5592 5592 5592 5593 5593 5594 5594 5595 5595 5595 5594 5594 5593 5592 5591 5590 5589 5587 5586 5585 5584 5582 5581 5579 5577 5575 5573 5571 5568 5566 5564 5562 5560 5558 5557 5555 5553 5551 5548 5545 5543 5540 5538 5536